GPS BIIF-4 (PRN 27)

Last updated on July 6, 2021, 3:39 p.m. UTC

1 39166U 13023A   21186.33578329 -.00000092  00000-0  00000+0 0  9993
2 39166  55.9031 341.6372 0093207  35.2352 325.3778  2.00562660 59610
UTC
Height (km)
Latitude
Longitude
Inclination
Orbital Period
UTC large
Height (km)
Speed (km/s)
/
Latitude / Longitude
Inclination (degrees)
Orbital Period (minutes)
Azimuth
Elevation
Range (km)
Doppler Factor
iOS Compass Heading
iOS Angle